This is the latest recevied weather packets stored in our database for station/object K6CED. If no packets are shown the sender has not sent any weather packets the latest 10 day(s).
| Time | Temp. | Humidity | Pressure | Rain* | Wind** | Luminosity | Snow |
|---|---|---|---|---|---|---|---|
| 1788186518 | 19.44° C | 92% | 1016.3 hPa | 0 mm | - | 82 W/m² | - |
| 1788186213 | 18.89° C | 93% | 1016.1 hPa | 0 mm | - | 76 W/m² | - |
| 1788185912 | 18.89° C | 94% | 1016.3 hPa | 0 mm | - | 64 W/m² | - |
| 1788185606 | 18.89° C | 94% | 1016.2 hPa | 0 mm | - | 56 W/m² | - |
| 1788185301 | 18.33° C | 94% | 1016.3 hPa | 0 mm | - | 46 W/m² | - |
| 1788184996 | 18.33° C | 94% | 1016.2 hPa | 0 mm | - | 36 W/m² | - |
| 1788184694 | 18.33° C | 94% | 1016.3 hPa | 0 mm | - | 30 W/m² | - |
| 1788184390 | 18.89° C | 94% | 1016 hPa | 0 mm | - | 26 W/m² | - |
| 1788184085 | 18.89° C | 94% | 1015.9 hPa | 0 mm | - | 24 W/m² | - |
| 1788183781 | 18.89° C | 93% | 1016.1 hPa | 0 mm | - | 20 W/m² | - |
| 1788183480 | 18.89° C | 93% | 1015.8 hPa | 0 mm | - | 14 W/m² | - |
| 1788183175 | 18.89° C | 93% | 1015.9 hPa | 0 mm | - | 10 W/m² | - |
| 1788182870 | 18.89° C | 93% | 1015.7 hPa | 0 mm | - | 6 W/m² | - |
| 1788182564 | 18.89° C | 93% | 1015.8 hPa | 0 mm | - | 4 W/m² | - |
| 1788182258 | 18.89° C | 93% | 1015.8 hPa | 0 mm | - | 2 W/m² | - |
| 1788181955 | 18.89° C | 92% | 1015.6 hPa | 0 mm | - | 1 W/m² | - |
| 1788181650 | 18.89° C | 92% | 1015.7 hPa | 0 mm | - | 0 W/m² | - |
| 1788181345 | 18.89° C | 92% | 1015.6 hPa | 0 mm | - | 0 W/m² | - |
| 1788181043 | 19.44° C | 92% | 1015.6 hPa | 0 mm | - | 0 W/m² | - |
| 1788180740 | 19.44° C | 92% | 1015.6 hPa | 0 mm | - | 0 W/m² | - |
| 1788180434 | 19.44° C | 92% | 1015.5 hPa | 0 mm | - | 0 W/m² | - |
| 1788180144 | 19.44° C | 93% | 1015.7 hPa | 0 mm | - | 0 W/m² | - |
| 1788179831 | 19.44° C | 93% | 1015.7 hPa | 0 mm | - | 0 W/m² | - |
| 1788179530 | 19.44° C | 93% | 1015.5 hPa | 0 mm | - | 0 W/m² | - |
| 1788179230 | 19.44° C | 93% | 1015.5 hPa | 0 mm | - | 0 W/m² | - |
* Rain latest hour (hover to see other rain measurements)
** Current wind speed in m/s (hover to see current wind gust speed)